Flag for Germany Weather past 2 weeks in Osterholz-Scharmbeck, Lower Saxony, Germany

Now
53 °F

Low clouds.


Feels Like: 53 °F
Forecast: 44 / 55 °F
Wind: 3 mph from Southwest

Location: Bremen

Current Time: Apr 26, 2015 at 12:50:07 AM

Latest Report: Apr 25, 2015 at 10:00 PM


Visibility: 5 mi

Pressure: 29.73 "Hg

Humidity: 94%

Dew point: 52 °F

Location of Osterholz-ScharmbeckLocation

Historic Weather in Osterholz-Scharmbeck — Graph

°F

Osterholz-Scharmbeck temperature yesterday

Maximum temperature yesterday: 58 °F (at 6:00 PM)
Minimum temperature yesterday: 51 °F (at 6:00 AM)
Average temperature yesterday: 54 °F

Past Weeks' High & Low Weather Summary

 TemperatureHumidityPressure
High71 °F (Apr 15, 3:00 PM)100% (Apr 24, 4:00 AM)30.44 "Hg (Apr 24, 4:00 AM)
Low35 °F (Apr 19, 3:00 AM)36% (Apr 18, 3:00 PM)29.70 "Hg (Apr 25, 8:00 PM)
Average50 °F71%30.15 "Hg
* Reported Apr 10 10:00 PM — Apr 25 10:00 PM, Osterholz-Scharmbeck, Weather by CustomWeather, © 2015

Note: Actual official high and low records may vary slightly from our data, if they occured in-between our weather recording intervals... More about our weather records

Advertising

Osterholz-Scharmbeck weather history for previous 24 hours

 ConditionsComfort  
Time TempWeatherWind HumidityBarometerVisibility
10:00 PM
Sat, Apr 25
53 °FLow clouds.3 mph94%29.73 "Hg5 mi
9:00 PM55 °FLight rain. Overcast.5 mph89%29.72 "Hg5 mi
8:00 PM57 °FOvercast.3 mph77%29.70 "Hg16 mi
7:00 PM58 °FOvercast.5 mph73%29.71 "Hg16 mi
6:00 PM58 °FLight rain. Overcast.5 mph75%29.71 "Hg16 mi
4:00 PM57 °FOvercast.6 mph78%29.72 "Hg16 mi
3:00 PM55 °FLight rain. Overcast.7 mph81%29.73 "Hg12 mi
2:00 PM54 °FLight rain. Overcast.5 mph87%29.73 "Hg4 mi
1:00 PM54 °FLight rain. Overcast.6 mph83%29.74 "Hg5 mi
12:00 PM55 °FLight rain. Overcast.5 mph84%29.74 "Hg4 mi
10:00 AM55 °FOvercast.5 mph79%29.74 "Hg6 mi
9:00 AM54 °FOvercast.2 mph79%29.73 "Hg7 mi
8:00 AM53 °FOvercast.2 mph74%29.74 "Hg7 mi
7:00 AM51 °FOvercast.2 mph74%29.73 "Hg7 mi
6:00 AM51 °FOvercast.2 mph72%29.72 "Hg9 mi
4:00 AM52 °FPassing clouds.1 mph68%29.74 "Hg16 mi
3:00 AM52 °FPassing clouds.1 mph67%29.75 "Hg16 mi
1:00 AM52 °FPassing clouds.2 mph69%29.77 "Hg16 mi
12:00 AM51 °FOvercast.2 mph69%29.78 "Hg12 mi
Weather by CustomWeather, © 2015

See weather overviewHow to use our weather pages